[ hide orbit diagram ]
For accurate long-term ephemerides, please instead use our Horizons system.This orbit viewer was implemented using two-body methods, and hence should not be used for determining accurate long-term trajectories (over several years or decades) or planetary encounter circumstances.
Orbital Elements at Epoch 2459200.5 (2020-Dec-17.0) TDB
Reference: JPL 14 (heliocentric ecliptic J2000)
Element | Value | Uncertainty (1-sigma) | Units |
e | .1697935903581851 | 7.181e-08 | |
a | 2.312894957799611 | 1.1411e-08 | au |
q | 1.920180218793472 | 1.6325e-07 | au |
i | 3.883950273156906 | 4.0451e-06 | deg |
node | 115.9109181959813 | 0.00013142 | deg |
peri | 42.24100223492842 | 0.00013397 | deg |
M | 253.482941947064 | 2.6943e-05 | deg |
tp | 2459580.644711513705 (2022-Jan-01.14471151) | 9.7872e-05 | TDB |
period | 1284.790423679576 3.52 | 9.5076e-06 2.603e-08 | d yr |
n | .2802013412965655 | 2.0735e-09 | deg/d |
Q | 2.70560969680575 | 1.3348e-08 | au |
|
| | Orbit Determination Parameters
Additional Information
|
[ show covariance matrix ]
Physical Parameter Table
Parameter |
Symbol |
Value |
Units |
Sigma |
Reference |
Notes |
absolute magnitude |
H |
17.2 |
|
n/a |
MPO433185 |
|
|
181766 (1997 AW14) Discovered 1997-Jan-12 by Klet at Klet |
Reference: 20080420/Numbers.arc | Last Updated: 2008-04-23 |
|
|